Time,TemperatureF,DewpointF,PressureIn,WindDirection,WindDirectionDegrees,WindSpeedMPH,WindSpeedGustMPH,Humidity,HourlyPrecipIn,Conditions,Clouds,dailyrainin,SoftwareType,DateUTC
2013-07-01 00:02:00,60.0,50.0,-100.00,SSE,158,11.0,13.0,70,0.00,,,-99.99,,2013-07-01 06:02:00,
2013-07-01 00:12:00,60.0,49.0,-100.00,SSE,161,12.0,14.0,66,0.00,,,-99.99,,2013-07-01 06:12:00,
2013-07-01 00:24:00,61.0,49.0,-100.00,SSE,161,12.0,14.0,65,0.00,,,-99.99,,2013-07-01 06:24:00,
2013-07-01 00:43:00,61.0,48.0,-100.00,SSE,160,11.0,12.0,62,0.00,,,-99.99,,2013-07-01 06:43:00,
2013-07-01 01:11:00,61.0,47.0,-100.00,SSE,158,9.0,10.0,61,0.00,,,-99.99,,2013-07-01 07:11:00,
2013-07-01 01:43:00,55.0,46.0,-100.00,North,11,1.0,3.0,72,0.00,,,-99.99,,2013-07-01 07:43:00,
2013-07-01 01:53:00,54.0,46.0,-100.00,East,90,1.0,2.0,74,0.00,,,-99.99,,2013-07-01 07:53:00,
2013-07-01 02:01:00,54.0,46.0,-100.00,ESE,103,0.0,1.0,75,0.00,,,-99.99,,2013-07-01 08:01:00,
2013-07-01 02:11:00,56.0,44.0,-100.00,SW,216,2.0,4.0,65,0.00,,,-99.99,,2013-07-01 08:11:00,
2013-07-01 02:33:00,55.0,43.0,-100.00,SW,232,2.0,4.0,64,0.00,,,-99.99,,2013-07-01 08:33:00,
2013-07-01 02:42:00,54.0,43.0,-100.00,SW,215,4.0,6.0,65,0.00,,,-99.99,,2013-07-01 08:42:00,
2013-07-01 03:02:00,56.0,43.0,-100.00,SW,222,3.0,4.0,62,0.00,,,-99.99,,2013-07-01 09:02:00,
2013-07-01 03:11:00,54.0,43.0,-100.00,SW,236,3.0,4.0,66,0.00,,,-99.99,,2013-07-01 09:11:00,
2013-07-01 03:34:00,54.0,43.0,-100.00,SW,234,3.0,4.0,65,0.00,,,-99.99,,2013-07-01 09:34:00,
2013-07-01 03:43:00,54.0,42.0,-100.00,WSW,243,3.0,4.0,63,0.00,,,-99.99,,2013-07-01 09:43:00,
2013-07-01 04:03:00,56.0,42.0,-100.00,SW,223,3.0,4.0,61,0.00,,,-99.99,,2013-07-01 10:03:00,
2013-07-01 04:11:00,56.0,43.0,-100.00,SW,222,3.0,4.0,60,0.00,,,-99.99,,2013-07-01 10:11:00,
2013-07-01 04:33:00,54.0,42.0,-100.00,SSW,203,6.0,7.0,65,0.00,,,-99.99,,2013-07-01 10:33:00,
2013-07-01 04:42:00,53.0,42.0,-100.00,SSW,198,6.0,7.0,66,0.00,,,-99.99,,2013-07-01 10:42:00,
2013-07-01 05:02:00,54.0,43.0,-100.00,SSW,213,4.0,5.0,66,0.00,,,-99.99,,2013-07-01 11:02:00,
2013-07-01 05:43:00,54.0,43.0,-100.00,SSW,206,3.0,5.0,65,0.00,,,-99.99,,2013-07-01 11:43:00,
2013-07-01 06:01:00,55.0,43.0,-100.00,SW,217,2.0,4.0,65,0.00,,,-99.99,,2013-07-01 12:01:00,
2013-07-01 06:11:00,55.0,43.0,-100.00,SW,216,2.0,4.0,62,0.00,,,-99.99,,2013-07-01 12:11:00,
2013-07-01 06:33:00,56.0,43.0,-100.00,SW,226,2.0,4.0,61,0.00,,,-99.99,,2013-07-01 12:33:00,
2013-07-01 06:43:00,56.0,43.0,-100.00,SW,222,3.0,5.0,61,0.00,,,-99.99,,2013-07-01 12:43:00,
2013-07-01 07:01:00,59.0,44.0,-100.00,SW,236,2.0,4.0,57,0.00,,,-99.99,,2013-07-01 13:01:00,
2013-07-01 07:43:00,62.0,44.0,-100.00,WNW,298,2.0,4.0,52,0.00,,,-99.99,,2013-07-01 13:43:00,
2013-07-01 09:02:00,67.0,45.0,-100.00,WNW,299,7.0,11.0,45,0.00,,,-99.99,,2013-07-01 15:02:00,
2013-07-01 09:43:00,67.0,45.0,-100.00,NW,318,7.0,16.0,45,0.00,,,-99.99,,2013-07-01 15:43:00,
2013-07-01 10:44:00,68.0,44.0,-100.00,NW,323,9.0,16.0,41,0.00,,,-99.99,,2013-07-01 16:44:00,
2013-07-01 11:12:00,67.0,43.0,-100.00,WNW,301,11.0,15.0,42,0.00,,,-99.99,,2013-07-01 17:12:00,
2013-07-01 11:43:00,70.0,43.0,-100.00,WNW,298,12.0,21.0,37,0.00,,,-99.99,,2013-07-01 17:43:00,
2013-07-01 12:02:00,71.0,42.0,-100.00,NW,305,12.0,19.0,34,0.00,,,-99.99,,2013-07-01 18:02:00,
2013-07-01 12:22:00,71.0,40.0,-100.00,WNW,287,12.0,24.0,32,0.00,,,-99.99,,2013-07-01 18:22:00,
2013-07-01 12:43:00,70.0,38.0,-100.00,WNW,294,16.0,22.0,30,0.00,,,-99.99,,2013-07-01 18:43:00,
2013-07-01 13:44:00,70.0,45.0,-100.00,NE,34,11.0,16.0,41,0.00,,,-99.99,,2013-07-01 19:44:00,
2013-07-01 14:43:00,72.0,43.0,-100.00,NE,42,9.0,14.0,35,0.00,,,-99.99,,2013-07-01 20:43:00,
2013-07-01 15:01:00,72.0,44.0,-100.00,NNE,20,9.0,17.0,36,0.00,,,-99.99,,2013-07-01 21:01:00,
2013-07-01 15:11:00,71.0,43.0,-100.00,NNE,21,8.0,17.0,37,0.00,,,-99.99,,2013-07-01 21:11:00,
2013-07-01 15:43:00,70.0,43.0,-100.00,NNE,16,13.0,21.0,37,0.00,,,-99.99,,2013-07-01 21:43:00,
2013-07-01 16:11:00,71.0,42.0,-100.00,NNE,24,13.0,23.0,34,0.00,,,-99.99,,2013-07-01 22:11:00,
2013-07-01 16:33:00,71.0,42.0,-100.00,North,10,10.0,17.0,36,0.00,,,-99.99,,2013-07-01 22:33:00,
2013-07-01 16:43:00,71.0,42.0,-100.00,North,4,11.0,18.0,35,0.00,,,-99.99,,2013-07-01 22:43:00,
2013-07-01 17:11:00,70.0,41.0,-100.00,NNE,20,12.0,19.0,35,0.00,,,-99.99,,2013-07-01 23:11:00,
2013-07-01 17:44:00,71.0,41.0,-100.00,NNE,25,13.0,17.0,34,0.00,,,-99.99,,2013-07-01 23:44:00,
2013-07-01 18:01:00,71.0,40.0,-100.00,North,353,9.0,15.0,33,0.00,,,-99.99,,2013-07-02 00:01:00,
2013-07-01 18:12:00,72.0,40.0,-100.00,North,0,12.0,21.0,32,0.00,,,-99.99,,2013-07-02 00:12:00,
2013-07-01 18:43:00,70.0,40.0,-100.00,NNE,18,10.0,18.0,33,0.00,,,-99.99,,2013-07-02 00:43:00,
2013-07-01 19:01:00,70.0,39.0,-100.00,NNE,17,11.0,17.0,33,0.00,,,-99.99,,2013-07-02 01:01:00,
2013-07-01 19:11:00,69.0,39.0,-100.00,North,11,11.0,16.0,33,0.00,,,-99.99,,2013-07-02 01:11:00,
2013-07-01 19:43:00,69.0,39.0,-100.00,NNE,24,9.0,12.0,33,0.00,,,-99.99,,2013-07-02 01:43:00,
2013-07-01 20:02:00,69.0,38.0,-100.00,NNE,25,10.0,16.0,33,0.00,,,-99.99,,2013-07-02 02:02:00,
2013-07-01 20:11:00,68.0,38.0,-100.00,NNE,30,12.0,15.0,34,0.00,,,-99.99,,2013-07-02 02:11:00,
2013-07-01 20:43:00,66.0,40.0,-100.00,NNE,28,7.0,9.0,38,0.00,,,-99.99,,2013-07-02 02:43:00,
2013-07-01 21:01:00,65.0,40.0,-100.00,NNE,31,7.0,12.0,40,0.00,,,-99.99,,2013-07-02 03:01:00,
2013-07-01 21:43:00,63.0,41.0,-100.00,NE,38,3.0,5.0,44,0.00,,,-99.99,,2013-07-02 03:43:00,
2013-07-01 22:11:00,60.0,46.0,-100.00,ENE,66,12.0,17.0,61,0.00,,,-99.99,,2013-07-02 04:11:00,
2013-07-01 22:32:00,58.0,49.0,-100.00,ESE,113,12.0,19.0,73,0.00,,,-99.99,,2013-07-02 04:32:00,
2013-07-01 22:42:00,57.0,50.0,-100.00,ESE,123,13.0,18.0,76,0.00,,,-99.99,,2013-07-02 04:42:00,
2013-07-01 23:01:00,56.0,49.0,-100.00,SE,130,12.0,19.0,77,0.00,,,-99.99,,2013-07-02 05:01:00,
2013-07-01 23:11:00,56.0,48.0,-100.00,SE,134,14.0,19.0,75,0.00,,,-99.99,,2013-07-02 05:11:00,
2013-07-01 23:22:00,56.0,48.0,-100.00,SE,141,14.0,17.0,75,0.00,,,-99.99,,2013-07-02 05:22:00,
2013-07-01 23:32:00,56.0,47.0,-100.00,SE,138,14.0,18.0,70,0.00,,,-99.99,,2013-07-02 05:32:00,
2013-07-01 23:43:00,56.0,47.0,-100.00,SSE,151,13.0,17.0,70,0.00,,,-99.99,,2013-07-02 05:43:00,